sat.trackr.live / text

‹ back to catalog

STARLINK-30263

NORAD 57642 · 2023-122L

PAYLOAD ACTIVE UNKNOWN

§ Identity

Operator
Country
US
Launch date
2023-08-17
Launch site
AFETR
Launch vehicle
Mass (kg)
RCS (m²)

Purposes: comms

External: N2YO · Heavens-Above · Gunter

§ Orbital elements

Epoch: 2026-09-20T04:06:46.006848Z

Period
94.27 min
Inclination
43.0025°
Eccentricity
0.0002325
Mean motion
15.27600857 rev/d
Perigee alt
481.4 km
Apogee alt
484.6 km
Semi-major
6,861.1 km
B*
1.3810e-4
RAAN
73.8985°
Arg perigee
262.7037°
Mean anomaly
97.3551°
Rev number
17,195

§ Raw data

STARLINK-302631 57642U 23122L   26263.17136582  .00003542  00000+0  13810-3 0  99952 57642  43.0025  73.8985 0002325 262.7037  97.3551 15.27600857171953

JSON: /api/v1/satellites/57642 · /tle

For live sub-satellite position, see the globe view (requires WebGL).

§ Visibility from observer

Set your observer location to see the next 7 days of passes ≥ 10°. The values pass through the URL so the page stays shareable.

No JS? Fill the form by hand. The geolocation button needs JavaScript.